Weather History for Los Alamos, NM

Change the Weather History Date:

Saturday, March 2, 2013

  Actual Average Record
Temperature  
Mean Temperature 46 °F -  
Max Temperature 56 °F 48 °F 64 °F (1967)
Min Temperature 35 °F 26 °F 7 °F (1965)
Degree Days  
Heating Degree Days 20    
Moisture  
Dew Point 19 °F    
Average Humidity 35    
Maximum Humidity 51    
Minimum Humidity 23    
Precipitation  
Precipitation 0.00 in - - ()
Sea Level Pressure  
Sea Level Pressure 30.36 in    
Wind  
Wind Speed 5 mph (NNE)    
Max Wind Speed 14 mph    
Max Gust Speed 17 mph    
Visibility 10 miles    
Events      
Averages and records for this station are not official NWS values.
T = Trace of Precipitation, MM = Missing Value Source: NWS Daily Summary

Daily Weather History Graph

Daily Weather History Graph

Search for Another Location

Airport:

Trip Planner

Search our weather history database for the weather conditions in past years. The results will help you decide how hot, cold, wet, or windy it might be!

Date:

Astronomy

Mar. 02, 2013 Rise Set
Actual Time 6:33 AM MST 6:01 PM MST
Civil Twilight 6:07 AM MST 6:27 PM MST
Nautical Twilight 5:38 AM MST 6:56 PM MST
Astronomical Twilight 5:08 AM MST 7:26 PM MST
Moon 11:31 PM MST (3/2) 9:14 AM MST (3/2)
Length of Visible Light 12h 19m
Length of Day
11h 27m
Waning Gibbous, 73% of the Moon is Illuminated
Mar 2
Waning Gibbous
Mar 4
Last Quarter
Mar 11
New
Mar 19
First Quarter
Mar 27
Full

Hourly Weather History & Observations

Time (MST) Temp. Windchill Dew Point Humidity Pressure Visibility Wind Dir Wind Speed Gust Speed Precip Events Conditions
12:15 AM 39.7 °F 37.6 °F 18.1 °F 42% 30.39 in 10.0 mi WNW 3.5 mph - N/A   Clear
12:35 AM 39.9 °F - 18.7 °F 42% 30.39 in 10.0 mi Calm Calm - N/A   Clear
12:55 AM 39.4 °F 37.2 °F 18.7 °F 43% 30.39 in 10.0 mi NE 3.5 mph - N/A   Clear
1:15 AM 39.6 °F 33.5 °F 19.4 °F 44% 30.39 in 10.0 mi NNW 9.2 mph - N/A   Clear
1:35 AM 39.2 °F 32.5 °F 20.1 °F 46% 30.39 in 10.0 mi North 10.4 mph - N/A   Clear
1:55 AM 39.2 °F 32.5 °F 20.3 °F 47% 30.39 in 10.0 mi North 10.4 mph 16.1 mph N/A   Clear
2:15 AM 38.7 °F 31.8 °F 20.1 °F 47% 30.39 in 10.0 mi North 10.4 mph - N/A   Clear
2:55 AM 37.8 °F 31.8 °F 19.4 °F 48% 30.39 in 10.0 mi NNW 8.1 mph - N/A   Clear
3:15 AM 37.2 °F 31.2 °F 20.3 °F 50% 30.39 in 10.0 mi North 8.1 mph - N/A   Clear
3:35 AM 37.4 °F 31.4 °F 19.4 °F 48% 30.39 in 10.0 mi North 8.1 mph - N/A   Clear
3:55 AM 37.2 °F 29.1 °F 19.2 °F 48% 30.39 in 10.0 mi NNW 12.7 mph 17.3 mph N/A   Clear
4:15 AM 36.7 °F 29.4 °F 19.0 °F 49% 30.39 in 10.0 mi NNW 10.4 mph 17.3 mph N/A   Clear
5:15 AM 35.8 °F 29.4 °F 18.5 °F 50% 30.41 in 10.0 mi NNW 8.1 mph - N/A   Clear
5:35 AM 35.8 °F 28.3 °F 18.5 °F 50% 30.41 in 10.0 mi North 10.4 mph - N/A   Clear
5:55 AM 36.0 °F 29.6 °F 18.3 °F 49% 30.41 in 10.0 mi North 8.1 mph - N/A   Clear
6:15 AM 35.1 °F 29.3 °F 18.5 °F 51% 30.41 in 10.0 mi NNW 6.9 mph - N/A   Clear
6:35 AM 35.2 °F 26.6 °F 18.5 °F 51% 30.41 in 10.0 mi North 12.7 mph - N/A   Clear
6:55 AM 36.3 °F 27.5 °F 18.1 °F 48% 30.41 in 10.0 mi North 13.8 mph - N/A   Clear
7:15 AM 36.5 °F 30.3 °F 18.3 °F 48% 30.42 in 10.0 mi North 8.1 mph - N/A   Clear
7:35 AM 37.4 °F 32.1 °F 18.3 °F 46% 30.43 in 10.0 mi North 6.9 mph - N/A   Clear
7:55 AM 38.3 °F 34.8 °F 18.3 °F 45% 30.43 in 10.0 mi North 4.6 mph - N/A   Clear
8:15 AM 39.2 °F - 18.7 °F 44% 30.43 in 10.0 mi Calm Calm - N/A   Clear
8:35 AM 40.1 °F - 19.0 °F 43% 30.44 in 10.0 mi Calm Calm - N/A   Clear
8:55 AM 40.8 °F 36.9 °F 18.7 °F 41% 30.44 in 10.0 mi NNE 5.8 mph - N/A   Clear
9:15 AM 41.4 °F 38.4 °F 19.4 °F 41% 30.44 in 10.0 mi North 4.6 mph - N/A   Clear
9:35 AM 42.3 °F 38.6 °F 19.4 °F 40% 30.43 in 10.0 mi ENE 5.8 mph - N/A   Clear
9:55 AM 43.7 °F 40.3 °F 19.6 °F 38% 30.43 in 10.0 mi ENE 5.8 mph - N/A   Clear
10:15 AM 44.2 °F 41.8 °F 19.8 °F 38% 30.43 in 10.0 mi NE 4.6 mph - N/A   Clear
10:35 AM 44.2 °F 41.0 °F 19.6 °F 37% 30.43 in 10.0 mi NE 5.8 mph - N/A   Clear
10:55 AM 45.3 °F 42.3 °F 19.4 °F 36% 30.42 in 10.0 mi NE 5.8 mph - N/A   Clear
11:15 AM 46.4 °F - 19.2 °F 34% 30.41 in 10.0 mi Calm Calm - N/A   Clear
11:35 AM 46.9 °F - 19.2 °F 33% 30.41 in 10.0 mi Calm Calm - N/A   Clear
11:55 AM 48.4 °F - 18.9 °F 31% 30.40 in 10.0 mi East 5.8 mph - N/A   Clear
12:15 PM 49.5 °F - 19.0 °F 30% 30.39 in 10.0 mi ENE 5.8 mph - N/A   Clear
12:35 PM 51.1 °F - 19.2 °F 29% 30.38 in 10.0 mi SSE 3.5 mph - N/A   Clear
12:55 PM 51.3 °F - 18.7 °F 28% 30.37 in 10.0 mi SE 3.5 mph - N/A   Clear
1:15 PM 51.6 °F - 18.7 °F 27% 30.36 in 10.0 mi South 5.8 mph - N/A   Clear
1:35 PM 52.5 °F - 18.5 °F 26% 30.35 in 10.0 mi SE 4.6 mph - N/A   Clear
1:55 PM 53.6 °F - 18.5 °F 25% 30.34 in 10.0 mi East 4.6 mph - N/A   Clear
2:15 PM 54.3 °F - 18.3 °F 24% 30.34 in 10.0 mi Calm Calm - N/A   Clear
2:35 PM 54.9 °F - 18.3 °F 24% 30.33 in 10.0 mi SSE 8.1 mph - N/A   Clear
2:55 PM 55.6 °F - 18.7 °F 24% 30.32 in 10.0 mi WNW 3.5 mph - N/A   Clear
3:15 PM 54.9 °F - 18.3 °F 24% 30.32 in 10.0 mi SSE 5.8 mph - N/A   Clear
3:35 PM 55.4 °F - 18.3 °F 23% 30.32 in 10.0 mi ESE 4.6 mph - N/A   Clear
3:55 PM 55.4 °F - 18.3 °F 23% 30.31 in 10.0 mi Calm Calm - N/A   Clear
4:15 PM 55.8 °F - 18.3 °F 23% 30.31 in 10.0 mi ESE 6.9 mph - N/A   Clear
4:35 PM 56.1 °F - 18.3 °F 23% 30.31 in 10.0 mi SE 6.9 mph - N/A   Clear
4:55 PM 55.4 °F - 18.1 °F 23% 30.30 in 10.0 mi SSE 4.6 mph - N/A   Clear
5:15 PM 55.6 °F - 17.8 °F 23% 30.30 in 10.0 mi ESE 3.5 mph - N/A   Clear
5:35 PM 55.4 °F - 17.6 °F 23% 30.30 in 10.0 mi SE 3.5 mph - N/A   Clear
5:55 PM 54.5 °F - 17.6 °F 23% 30.30 in 10.0 mi SSE 3.5 mph - N/A   Clear
6:15 PM 53.6 °F - 17.6 °F 24% 30.29 in 10.0 mi Calm Calm - N/A   Clear
6:35 PM 52.7 °F - 17.6 °F 25% 30.29 in 10.0 mi Calm Calm - N/A   Clear
6:55 PM 52.2 °F - 18.1 °F 26% 30.29 in 10.0 mi WSW 3.5 mph - N/A   Clear
7:15 PM 51.3 °F - 19.0 °F 28% 30.29 in 10.0 mi WSW 6.9 mph - N/A   Clear
7:35 PM 51.8 °F - 18.7 °F 27% 30.29 in 10.0 mi West 4.6 mph - N/A   Clear
7:55 PM 51.3 °F - 18.7 °F 28% 30.29 in 10.0 mi West 3.5 mph - N/A   Clear
8:15 PM 51.1 °F - 18.5 °F 28% 30.30 in 10.0 mi West 3.5 mph - N/A   Clear
8:35 PM 51.3 °F - 17.8 °F 27% 30.30 in 10.0 mi West 5.8 mph - N/A   Clear
8:55 PM 52.7 °F - 17.6 °F 25% 30.30 in 10.0 mi Calm Calm - N/A   Clear
9:15 PM 50.2 °F - 17.2 °F 27% 30.30 in 10.0 mi East 4.6 mph - N/A   Clear
9:35 PM 50.0 °F - 17.2 °F 27% 30.30 in 10.0 mi ENE 5.8 mph - N/A   Clear
9:55 PM 48.4 °F - 17.4 °F 29% 30.30 in 10.0 mi Calm Calm - N/A   Clear
10:15 PM 47.7 °F - 17.2 °F 30% 30.30 in 10.0 mi Calm Calm - N/A   Clear
10:35 PM 48.2 °F - 16.9 °F 29% 30.30 in 10.0 mi Calm Calm - N/A   Clear
10:55 PM 46.9 °F - 17.1 °F 30% 30.29 in 10.0 mi Calm Calm - N/A   Clear
11:15 PM 46.8 °F - 17.6 °F 31% 30.28 in 10.0 mi Calm Calm - N/A   Clear
11:35 PM 46.8 °F - 18.1 °F 32% 30.27 in 10.0 mi Calm Calm - N/A   Clear
11:55 PM 46.0 °F - 18.9 °F 34% 30.27 in 10.0 mi Calm Calm - N/A   Clear